Time,TemperatureF,DewpointF,PressureIn,WindDirection,WindDirectionDegrees,WindSpeedMPH,WindSpeedGustMPH,Humidity,HourlyPrecipIn,Conditions,Clouds,dailyrainin,SoftwareType,DateUTC
2013-02-28 00:14:00,49.2,43.0,29.80,West,270,3.0,8.0,79,0.00,,,0.00,weatherlink.com 1.10,2013-02-28 05:14:00,
2013-02-28 00:30:00,49.0,43.0,29.80,SSE,167,2.0,7.0,80,0.00,,,0.00,weatherlink.com 1.10,2013-02-28 05:30:00,
2013-02-28 00:45:00,48.8,43.0,29.80,WSW,250,3.0,6.0,80,0.00,,,0.00,weatherlink.com 1.10,2013-02-28 05:45:00,
2013-02-28 01:00:00,48.6,43.0,29.80,WSW,251,2.0,6.0,80,0.00,,,0.00,weatherlink.com 1.10,2013-02-28 06:00:00,
2013-02-28 01:15:00,48.3,43.0,29.80,West,261,3.0,5.0,81,0.00,,,0.00,weatherlink.com 1.10,2013-02-28 06:15:00,
2013-02-28 01:30:00,48.1,43.0,29.79,West,268,3.0,5.0,81,0.00,,,0.00,weatherlink.com 1.10,2013-02-28 06:30:00,
2013-02-28 01:45:00,47.9,43.0,29.79,West,260,4.0,4.0,82,0.00,,,0.00,weatherlink.com 1.10,2013-02-28 06:45:00,
2013-02-28 02:00:00,47.9,43.0,29.79,West,260,3.0,5.0,82,0.00,,,0.00,weatherlink.com 1.10,2013-02-28 07:00:00,
2013-02-28 02:15:00,47.6,42.0,29.79,WNW,289,3.0,5.0,82,0.00,,,0.00,weatherlink.com 1.10,2013-02-28 07:15:00,
2013-02-28 02:30:00,47.5,42.0,29.79,West,262,2.0,5.0,82,0.00,,,0.00,weatherlink.com 1.10,2013-02-28 07:30:00,
2013-02-28 02:45:00,47.2,42.0,29.78,NW,312,3.0,5.0,83,0.00,,,0.00,weatherlink.com 1.10,2013-02-28 07:45:00,
2013-02-28 03:00:00,46.8,42.0,29.78,WSW,250,2.0,3.0,84,0.00,,,0.00,weatherlink.com 1.10,2013-02-28 08:00:00,
2013-02-28 03:15:00,46.6,42.0,29.77,West,270,1.0,4.0,84,0.00,,,0.00,weatherlink.com 1.10,2013-02-28 08:15:00,
2013-02-28 03:30:00,46.3,42.0,29.78,West,278,1.0,3.0,85,0.00,,,0.00,weatherlink.com 1.10,2013-02-28 08:30:00,
2013-02-28 03:45:00,46.2,42.0,29.78,West,263,2.0,4.0,85,0.00,,,0.00,weatherlink.com 1.10,2013-02-28 08:45:00,
2013-02-28 04:00:00,46.1,42.0,29.79,West,261,1.0,3.0,85,0.00,,,0.00,weatherlink.com 1.10,2013-02-28 09:00:00,
2013-02-28 04:15:00,45.9,42.0,29.79,West,260,1.0,5.0,86,0.00,,,0.00,weatherlink.com 1.10,2013-02-28 09:15:00,
2013-02-28 04:30:00,45.7,42.0,29.79,WSW,258,0.0,2.0,86,0.00,,,0.00,weatherlink.com 1.10,2013-02-28 09:30:00,
2013-02-28 04:45:00,45.7,42.0,29.79,WNW,282,3.0,3.0,86,0.00,,,0.00,weatherlink.com 1.10,2013-02-28 09:45:00,
2013-02-28 05:00:00,45.7,42.0,29.79,WSW,250,0.0,3.0,86,0.00,,,0.00,weatherlink.com 1.10,2013-02-28 10:00:00,
2013-02-28 05:15:00,45.6,41.0,29.80,West,270,3.0,3.0,85,0.00,,,0.00,weatherlink.com 1.10,2013-02-28 10:15:00,
2013-02-28 05:30:00,45.4,42.0,29.80,West,268,2.0,2.0,86,0.00,,,0.00,weatherlink.com 1.10,2013-02-28 10:30:00,
2013-02-28 05:45:00,45.2,41.0,29.80,West,264,3.0,3.0,86,0.00,,,0.00,weatherlink.com 1.10,2013-02-28 10:45:00,
2013-02-28 06:00:00,45.1,41.0,29.80,West,265,2.0,2.0,86,0.00,,,0.00,weatherlink.com 1.10,2013-02-28 11:00:00,
2013-02-28 06:15:00,44.8,41.0,29.80,West,265,0.0,2.0,87,0.00,,,0.00,weatherlink.com 1.10,2013-02-28 11:15:00,
2013-02-28 06:30:00,44.1,41.0,29.80,SW,236,0.0,2.0,88,0.00,,,0.00,weatherlink.com 1.10,2013-02-28 11:30:00,
2013-02-28 06:45:00,44.1,41.0,29.80,West,263,1.0,2.0,88,0.00,,,0.00,weatherlink.com 1.10,2013-02-28 11:45:00,
2013-02-28 07:00:00,43.9,41.0,29.80,West,262,0.0,2.0,89,0.00,,,0.00,weatherlink.com 1.10,2013-02-28 12:00:00,
2013-02-28 07:15:00,43.9,41.0,29.81,WSW,251,2.0,2.0,89,0.00,,,0.00,weatherlink.com 1.10,2013-02-28 12:15:00,
2013-02-28 07:30:00,44.5,41.0,29.81,West,267,3.0,3.0,88,0.00,,,0.00,weatherlink.com 1.10,2013-02-28 12:30:00,
2013-02-28 07:45:00,46.1,42.0,29.82,WNW,288,2.0,4.0,85,0.00,,,0.00,weatherlink.com 1.10,2013-02-28 12:45:00,
2013-02-28 08:00:00,47.7,43.0,29.82,West,272,1.0,5.0,82,0.00,,,0.00,weatherlink.com 1.10,2013-02-28 13:00:00,
2013-02-28 08:15:00,48.7,42.0,29.83,West,274,5.0,8.0,79,0.00,,,0.00,weatherlink.com 1.10,2013-02-28 13:15:00,
2013-02-28 08:30:00,49.8,43.0,29.84,WNW,291,8.0,10.0,76,0.00,,,0.00,weatherlink.com 1.10,2013-02-28 13:30:00,
2013-02-28 08:46:00,50.4,43.0,29.83,NW,309,6.0,11.0,75,0.00,,,0.00,weatherlink.com 1.10,2013-02-28 13:46:00,
2013-02-28 09:01:00,50.9,42.0,29.83,NW,318,3.0,12.0,72,0.00,,,0.00,weatherlink.com 1.10,2013-02-28 14:01:00,
2013-02-28 09:16:00,52.0,42.0,29.82,SW,222,2.0,11.0,70,0.00,,,0.00,weatherlink.com 1.10,2013-02-28 14:16:00,
2013-02-28 09:31:00,52.0,40.0,29.82,NW,305,8.0,14.0,65,0.00,,,0.00,weatherlink.com 1.10,2013-02-28 14:31:00,
2013-02-28 09:46:00,52.5,41.0,29.82,NW,307,4.0,15.0,65,0.00,,,0.00,weatherlink.com 1.10,2013-02-28 14:46:00,
2013-02-28 10:01:00,52.6,40.0,29.82,WNW,302,7.0,15.0,62,0.00,,,0.00,weatherlink.com 1.10,2013-02-28 15:01:00,
2013-02-28 10:16:00,53.0,38.0,29.81,WNW,292,5.0,18.0,57,0.00,,,0.00,weatherlink.com 1.10,2013-02-28 15:16:00,
2013-02-28 10:31:00,53.9,38.0,29.81,West,274,3.0,8.0,55,0.00,,,0.00,weatherlink.com 1.10,2013-02-28 15:31:00,
2013-02-28 10:46:00,54.3,38.0,29.80,WSW,253,4.0,17.0,54,0.00,,,0.00,weatherlink.com 1.10,2013-02-28 15:46:00,
2013-02-28 11:01:00,54.7,38.0,29.80,West,274,5.0,13.0,53,0.00,,,0.00,weatherlink.com 1.10,2013-02-28 16:01:00,
2013-02-28 11:16:00,55.2,38.0,29.80,SW,236,5.0,14.0,52,0.00,,,0.00,weatherlink.com 1.10,2013-02-28 16:16:00,
2013-02-28 11:31:00,56.1,36.0,29.79,West,277,2.0,12.0,48,0.00,,,0.00,weatherlink.com 1.10,2013-02-28 16:31:00,
2013-02-28 11:46:00,56.3,37.0,29.79,NNW,327,6.0,19.0,48,0.00,,,0.00,weatherlink.com 1.10,2013-02-28 16:46:00,
2013-02-28 12:01:00,56.1,35.0,29.78,North,352,9.0,15.0,46,0.00,,,0.00,weatherlink.com 1.10,2013-02-28 17:01:00,
2013-02-28 12:16:00,55.9,36.0,29.78,NW,322,6.0,18.0,47,0.00,,,0.00,weatherlink.com 1.10,2013-02-28 17:16:00,
2013-02-28 12:31:00,56.0,35.0,29.77,WSW,246,6.0,20.0,46,0.00,,,0.00,weatherlink.com 1.10,2013-02-28 17:31:00,
2013-02-28 12:46:00,56.3,35.0,29.77,NW,322,7.0,21.0,45,0.00,,,0.00,weatherlink.com 1.10,2013-02-28 17:46:00,
2013-02-28 13:01:00,56.5,36.0,29.76,NW,308,7.0,16.0,46,0.00,,,0.00,weatherlink.com 1.10,2013-02-28 18:01:00,
2013-02-28 13:16:00,56.7,35.0,29.76,NW,316,8.0,15.0,45,0.00,,,0.00,weatherlink.com 1.10,2013-02-28 18:16:00,
2013-02-28 13:31:00,57.2,36.0,29.75,North,10,3.0,15.0,45,0.00,,,0.00,weatherlink.com 1.10,2013-02-28 18:31:00,
2013-02-28 13:46:00,57.6,34.0,29.75,West,262,7.0,13.0,42,0.00,,,0.00,weatherlink.com 1.10,2013-02-28 18:46:00,
2013-02-28 14:01:00,57.3,35.0,29.75,NNW,345,4.0,17.0,43,0.00,,,0.00,weatherlink.com 1.10,2013-02-28 19:01:00,
2013-02-28 14:16:00,57.3,36.0,29.75,NNW,336,4.0,11.0,45,0.00,,,0.00,weatherlink.com 1.10,2013-02-28 19:16:00,
2013-02-28 14:31:00,57.0,33.0,29.76,NW,318,2.0,23.0,41,0.00,,,0.00,weatherlink.com 1.10,2013-02-28 19:31:00,
2013-02-28 14:46:00,57.4,34.0,29.76,West,274,4.0,20.0,41,0.00,,,0.00,weatherlink.com 1.10,2013-02-28 19:46:00,
2013-02-28 15:01:00,57.8,34.0,29.76,NNW,338,5.0,13.0,41,0.00,,,0.00,weatherlink.com 1.10,2013-02-28 20:01:00,
2013-02-28 15:16:00,56.9,34.0,29.76,West,261,5.0,14.0,43,0.00,,,0.00,weatherlink.com 1.10,2013-02-28 20:16:00,
2013-02-28 15:31:00,57.7,35.0,29.77,NNW,327,5.0,18.0,42,0.00,,,0.00,weatherlink.com 1.10,2013-02-28 20:31:00,
2013-02-28 15:46:00,57.4,34.0,29.77,NNW,329,4.0,16.0,41,0.00,,,0.00,weatherlink.com 1.10,2013-02-28 20:46:00,
2013-02-28 16:01:00,57.9,35.0,29.77,WNW,295,8.0,15.0,42,0.00,,,0.00,weatherlink.com 1.10,2013-02-28 21:01:00,
2013-02-28 16:16:00,57.1,33.0,29.77,NW,316,13.0,22.0,40,0.00,,,0.00,weatherlink.com 1.10,2013-02-28 21:16:00,
2013-02-28 16:31:00,57.1,35.0,29.77,WNW,284,2.0,13.0,44,0.00,,,0.00,weatherlink.com 1.10,2013-02-28 21:31:00,
2013-02-28 16:46:00,56.1,34.0,29.78,SW,236,6.0,13.0,43,0.00,,,0.00,weatherlink.com 1.10,2013-02-28 21:46:00,
2013-02-28 17:01:00,55.5,33.0,29.78,NW,305,4.0,19.0,43,0.00,,,0.00,weatherlink.com 1.10,2013-02-28 22:01:00,
2013-02-28 17:16:00,55.2,34.0,29.79,WNW,289,5.0,10.0,45,0.00,,,0.00,weatherlink.com 1.10,2013-02-28 22:16:00,
2013-02-28 17:31:00,54.9,33.0,29.80,NW,306,4.0,12.0,44,0.00,,,0.00,weatherlink.com 1.10,2013-02-28 22:31:00,
2013-02-28 17:46:00,54.4,34.0,29.80,NW,306,7.0,12.0,46,0.00,,,0.00,weatherlink.com 1.10,2013-02-28 22:46:00,
2013-02-28 18:01:00,53.7,34.0,29.81,NW,319,7.0,12.0,47,0.00,,,0.00,weatherlink.com 1.10,2013-02-28 23:01:00,
2013-02-28 18:16:00,53.0,34.0,29.82,NNW,331,6.0,8.0,49,0.00,,,0.00,weatherlink.com 1.10,2013-02-28 23:16:00,
2013-02-28 18:31:00,52.4,35.0,29.83,NW,316,2.0,7.0,51,0.00,,,0.00,weatherlink.com 1.10,2013-02-28 23:31:00,
2013-02-28 18:46:00,52.0,34.0,29.84,NW,307,2.0,6.0,51,0.00,,,0.00,weatherlink.com 1.10,2013-02-28 23:46:00,
2013-02-28 19:02:00,51.4,35.0,29.84,SW,233,1.0,7.0,53,0.00,,,0.00,weatherlink.com 1.10,2013-03-01 00:02:00,
2013-02-28 19:17:00,51.3,34.0,29.85,WNW,301,1.0,5.0,53,0.00,,,0.00,weatherlink.com 1.10,2013-03-01 00:17:00,
2013-02-28 19:32:00,51.1,34.0,29.86,NNW,340,4.0,6.0,53,0.00,,,0.00,weatherlink.com 1.10,2013-03-01 00:32:00,
2013-02-28 19:47:00,50.8,34.0,29.86,NW,323,3.0,6.0,54,0.00,,,0.00,weatherlink.com 1.10,2013-03-01 00:47:00,
2013-02-28 20:02:00,50.2,34.0,29.86,NW,310,2.0,3.0,55,0.00,,,0.00,weatherlink.com 1.10,2013-03-01 01:02:00,
2013-02-28 20:17:00,49.7,34.0,29.86,NW,305,1.0,3.0,56,0.00,,,0.00,weatherlink.com 1.10,2013-03-01 01:17:00,
2013-02-28 20:32:00,49.3,34.0,29.86,WNW,298,1.0,7.0,56,0.00,,,0.00,weatherlink.com 1.10,2013-03-01 01:32:00,
2013-02-28 20:47:00,48.5,34.0,29.86,WNW,303,0.0,1.0,58,0.00,,,0.00,weatherlink.com 1.10,2013-03-01 01:47:00,
2013-02-28 21:02:00,47.6,34.0,29.87,WNW,294,0.0,2.0,60,0.00,,,0.00,weatherlink.com 1.10,2013-03-01 02:02:00,
2013-02-28 21:17:00,46.9,35.0,29.87,West,275,0.0,1.0,64,0.00,,,0.00,weatherlink.com 1.10,2013-03-01 02:17:00,
2013-02-28 21:32:00,45.9,35.0,29.87,West,272,0.0,0.0,65,0.00,,,0.00,weatherlink.com 1.10,2013-03-01 02:32:00,
2013-02-28 21:47:00,45.2,35.0,29.87,West,268,0.0,0.0,68,0.00,,,0.00,weatherlink.com 1.10,2013-03-01 02:47:00,
2013-02-28 22:02:00,44.3,35.0,29.87,West,268,0.0,0.0,70,0.00,,,0.00,weatherlink.com 1.10,2013-03-01 03:02:00,
2013-02-28 22:17:00,43.5,36.0,29.87,West,268,0.0,0.0,74,0.00,,,0.00,weatherlink.com 1.10,2013-03-01 03:17:00,
2013-02-28 22:32:00,42.6,36.0,29.87,SW,234,0.0,1.0,77,0.00,,,0.00,weatherlink.com 1.10,2013-03-01 03:32:00,
2013-02-28 22:47:00,41.8,36.0,29.87,SW,234,0.0,0.0,81,0.00,,,0.00,weatherlink.com 1.10,2013-03-01 03:47:00,
2013-02-28 23:02:00,41.3,36.0,29.87,SW,234,0.0,0.0,81,0.00,,,0.00,weatherlink.com 1.10,2013-03-01 04:02:00,
2013-02-28 23:17:00,41.4,36.0,29.87,SW,234,0.0,0.0,82,0.00,,,0.00,weatherlink.com 1.10,2013-03-01 04:17:00,
2013-02-28 23:32:00,41.0,36.0,29.87,SW,234,0.0,0.0,83,0.00,,,0.00,weatherlink.com 1.10,2013-03-01 04:32:00,
2013-02-28 23:47:00,41.0,37.0,29.87,SW,234,0.0,1.0,85,0.00,,,0.00,weatherlink.com 1.10,2013-03-01 04:47:00,